TimeEST,TemperatureF,Dew PointF,Humidity,Sea Level PressureIn,VisibilityMPH,Wind Direction,Wind SpeedMPH,Gust SpeedMPH,PrecipitationIn,Events,Conditions,WindDirDegrees,DateUTC
12:15 AM,54.5,54.3,99,30.01,1.2,NE,8.1,-,N/A,Rain,Heavy Rain,40,2012-12-09 05:15:00
12:35 AM,54.0,53.8,99,30.02,5.0,East,5.8,-,N/A,Rain,Rain,90,2012-12-09 05:35:00
12:55 AM,53.8,53.6,99,30.02,5.0,ESE,3.5,-,N/A,Rain,Rain,110,2012-12-09 05:55:00
1:15 AM,54.0,53.8,99,30.01,5.0,East,4.6,-,N/A,Rain,Rain,80,2012-12-09 06:15:00
1:35 AM,53.8,53.6,99,30.01,7.0,NE,3.5,-,N/A,Rain,Rain,50,2012-12-09 06:35:00
2:15 AM,53.8,53.6,99,30.01,10.0,SE,3.5,-,N/A,,Overcast,140,2012-12-09 07:15:00
2:35 AM,54.1,54.0,99,30.02,10.0,Calm,Calm,-,N/A,Rain,Light Rain,0,2012-12-09 07:35:00
2:55 AM,53.8,53.6,99,30.01,10.0,SE,3.5,-,N/A,Rain,Rain,140,2012-12-09 07:55:00
3:15 AM,54.0,53.8,99,30.01,7.0,SSE,3.5,-,N/A,Rain,Light Rain,150,2012-12-09 08:15:00
3:35 AM,53.2,53.1,99,30.00,7.0,Calm,Calm,-,N/A,,Overcast,0,2012-12-09 08:35:00
3:55 AM,53.6,53.6,100,30.01,10.0,SSW,3.5,-,N/A,,Overcast,200,2012-12-09 08:55:00
4:15 AM,54.1,54.0,99,30.00,10.0,South,3.5,-,N/A,,Overcast,180,2012-12-09 09:15:00
4:35 AM,54.1,54.0,99,30.00,10.0,South,4.6,-,N/A,,Overcast,190,2012-12-09 09:35:00
4:55 AM,54.0,53.8,99,30.01,10.0,Calm,Calm,-,N/A,,Overcast,0,2012-12-09 09:55:00
5:15 AM,53.8,53.6,99,30.00,2.5,Calm,Calm,-,N/A,Rain,Light Rain,0,2012-12-09 10:15:00
5:35 AM,53.6,53.6,100,30.00,1.8,SSE,4.6,-,N/A,Rain,Light Rain,150,2012-12-09 10:35:00
5:55 AM,53.6,53.4,99,30.01,5.0,Calm,Calm,-,N/A,,Overcast,0,2012-12-09 10:55:00
6:15 AM,53.8,53.8,100,30.02,7.0,SSE,3.5,-,N/A,,Overcast,160,2012-12-09 11:15:00
6:55 AM,54.1,54.0,99,30.03,10.0,Calm,Calm,-,N/A,,Overcast,0,2012-12-09 11:55:00
7:15 AM,54.5,54.1,99,30.02,10.0,SSE,4.6,-,N/A,,Overcast,150,2012-12-09 12:15:00
7:35 AM,54.7,54.5,99,30.03,10.0,SSE,4.6,-,N/A,,Mostly Cloudy,160,2012-12-09 12:35:00
7:55 AM,54.1,53.8,99,30.02,10.0,Calm,Calm,-,N/A,,Overcast,0,2012-12-09 12:55:00
8:15 AM,54.9,54.5,99,30.02,10.0,SE,4.6,-,N/A,,Overcast,140,2012-12-09 13:15:00
8:35 AM,55.2,54.5,97,30.02,10.0,SSE,3.5,-,N/A,,Overcast,160,2012-12-09 13:35:00
8:55 AM,56.3,54.9,95,30.02,10.0,SSE,3.5,-,N/A,,Overcast,150,2012-12-09 13:55:00
9:15 AM,56.5,55.0,95,30.02,10.0,SSE,3.5,-,N/A,,Overcast,160,2012-12-09 14:15:00
9:35 AM,56.7,55.4,96,30.02,10.0,SSE,5.8,-,N/A,,Overcast,150,2012-12-09 14:35:00
9:55 AM,57.4,55.6,94,30.02,10.0,South,5.8,-,N/A,,Overcast,170,2012-12-09 14:55:00
10:15 AM,58.1,56.1,93,30.02,10.0,SSE,6.9,-,N/A,,Mostly Cloudy,150,2012-12-09 15:15:00
10:35 AM,58.3,56.1,93,30.01,10.0,SSE,6.9,-,N/A,,Overcast,160,2012-12-09 15:35:00
10:55 AM,58.6,56.3,92,30.00,10.0,SSE,5.8,-,N/A,Rain,Rain,150,2012-12-09 15:55:00
11:15 AM,59.0,56.5,91,30.00,10.0,SSE,6.9,-,N/A,,Overcast,160,2012-12-09 16:15:00
11:35 AM,59.5,56.8,91,29.99,10.0,South,6.9,-,N/A,,Overcast,180,2012-12-09 16:35:00
11:55 AM,59.4,57.2,93,29.99,10.0,South,6.9,-,N/A,Rain,Rain,180,2012-12-09 16:55:00
12:15 PM,59.4,57.4,93,29.98,10.0,South,4.6,-,N/A,Rain,Light Rain,180,2012-12-09 17:15:00
12:35 PM,59.4,57.4,93,29.97,7.0,South,5.8,-,N/A,Rain,Light Rain,170,2012-12-09 17:35:00
12:55 PM,59.4,57.6,94,29.97,10.0,South,4.6,-,N/A,,Drizzle,170,2012-12-09 17:55:00
1:15 PM,59.0,57.7,96,29.97,5.0,West,4.6,-,N/A,Rain,Rain,260,2012-12-09 18:15:00
1:35 PM,58.3,57.9,99,29.97,2.5,Calm,Calm,-,N/A,Rain,Rain,0,2012-12-09 18:35:00
1:55 PM,58.3,58.1,99,29.95,3.0,South,4.6,-,N/A,Rain,Rain,170,2012-12-09 18:55:00
2:15 PM,58.5,57.9,98,29.95,5.0,Calm,Calm,-,N/A,Rain,Light Rain,0,2012-12-09 19:15:00
2:35 PM,58.3,57.9,99,29.94,5.0,South,3.5,-,N/A,Rain,Light Rain,180,2012-12-09 19:35:00
2:55 PM,58.3,57.7,98,29.93,5.0,Calm,Calm,-,N/A,Rain,Light Rain,0,2012-12-09 19:55:00
3:35 PM,58.3,57.7,98,29.94,3.0,South,4.6,-,N/A,Rain,Heavy Rain,170,2012-12-09 20:35:00
3:55 PM,58.3,57.7,98,29.95,1.8,Calm,Calm,-,N/A,Rain,Rain,0,2012-12-09 20:55:00
4:15 PM,58.3,57.9,99,29.94,10.0,South,5.8,-,N/A,Rain,Rain,180,2012-12-09 21:15:00
4:35 PM,58.3,57.7,98,29.93,10.0,SSE,6.9,-,N/A,,Light Drizzle,150,2012-12-09 21:35:00
4:55 PM,58.3,57.4,97,29.93,10.0,South,4.6,-,N/A,,Overcast,180,2012-12-09 21:55:00
5:15 PM,58.3,57.4,97,29.92,10.0,South,5.8,-,N/A,,Overcast,180,2012-12-09 22:15:00
5:35 PM,58.3,57.2,96,29.92,10.0,South,6.9,-,N/A,,Overcast,170,2012-12-09 22:35:00
5:55 PM,58.6,57.2,95,29.92,10.0,South,5.8,-,N/A,,Overcast,170,2012-12-09 22:55:00
6:15 PM,58.6,57.2,95,29.91,10.0,South,8.1,-,N/A,,Overcast,170,2012-12-09 23:15:00
6:35 PM,59.0,57.2,94,29.92,10.0,SSW,5.8,-,N/A,,Overcast,210,2012-12-09 23:35:00
6:55 PM,58.5,57.2,96,29.91,10.0,South,6.9,-,N/A,Rain,Rain,180,2012-12-09 23:55:00
7:15 PM,58.3,57.2,96,29.91,10.0,South,6.9,-,N/A,Rain,Light Rain,180,2012-12-10 00:15:00
7:35 PM,58.6,57.2,95,29.90,10.0,South,6.9,-,N/A,,Mostly Cloudy,170,2012-12-10 00:35:00
7:55 PM,58.8,56.7,93,29.89,10.0,South,8.1,-,N/A,,Scattered Clouds,180,2012-12-10 00:55:00
8:15 PM,58.6,56.5,93,29.88,10.0,South,9.2,-,N/A,,Mostly Cloudy,180,2012-12-10 01:15:00
8:35 PM,59.4,56.3,90,29.87,10.0,South,9.2,-,N/A,,Overcast,180,2012-12-10 01:35:00
9:15 PM,59.5,55.9,88,29.86,10.0,South,8.1,-,N/A,,Overcast,180,2012-12-10 02:15:00
9:35 PM,59.7,55.6,86,29.86,10.0,South,6.9,-,N/A,,Overcast,180,2012-12-10 02:35:00
9:55 PM,59.2,55.4,87,29.85,10.0,South,6.9,-,N/A,,Overcast,180,2012-12-10 02:55:00
10:15 PM,59.0,55.2,87,29.84,10.0,South,8.1,-,N/A,,Mostly Cloudy,180,2012-12-10 03:15:00
10:35 PM,59.4,55.2,86,29.84,10.0,South,8.1,-,N/A,,Mostly Cloudy,180,2012-12-10 03:35:00
10:55 PM,58.3,54.9,88,29.84,10.0,South,8.1,-,N/A,,Scattered Clouds,180,2012-12-10 03:55:00
11:15 PM,58.5,54.5,87,29.83,10.0,South,8.1,-,N/A,,Clear,190,2012-12-10 04:15:00
11:35 PM,59.0,54.5,85,29.82,10.0,South,9.2,-,N/A,,Clear,180,2012-12-10 04:35:00
11:55 PM,59.2,54.3,84,29.81,10.0,South,8.1,-,N/A,,Clear,180,2012-12-10 04:55:00